METAR Formatted Surface Weather Observation
Issued by NWS

Home | Current Version | Previous Version | Text Only | Print | Product List | Glossary On
Versions: 1 2 3 4 5 6 7 8 9 10 11 12 13 14 15 16 17 18 19 20 21 22 23 24 25 26 27 28 29 30 31 32 33 34 35 36 37 38 39 40 41 42 43 44 45 46 47 48 49 50
696
SAAK48 PANC 032210
MTRASY
SPECI PASY 032208Z 35022KT 9SM -SN FEW014 BKN035 OVC060 03/01 A2982
RMK AO2 SNB02 WND DATA ESTMD $



USA.gov is the U.S. government's official web portal to all federal, state and local government web resources and services.